OneWeb SL0369

operational
NORAD ID: 49295 Int'l Des: 2021-090 Owner: ONEWEBN Country: UK Constellation: oneweb
LEOCIRCULARPOLARONEWEB_TYPE

About OneWeb SL0369

Description loading...

Live Position

Loading 3D Globe...

Upcoming Passes

Altitude History

Altitude vs Time

uPlot chart will show altitude changes over time

Two-Line Element Set

1 49295U 21090S 25304.13944025 .00000027 00000-0 35528-4 0 9999
2 49295 87.9246 350.5509 0001906 99.6915 260.4433 13.19725553196200
Epoch: Oct 31, 2025 • Age: 13 hours

Current Status

Altitude 1187.8 km
Velocity 7.26 km/s
Sub-Earth Point 13.98°N, 68.43°E
Launch Date Oct 14, 2021
Age 4 years
Type internet

Technical Details

Classification Payload
Mass 148.00 kg
Dry Mass 140.00 kg
Total Mass 148.00 kg
Length 1.30 m
Diameter 1.00 m
Span 5.00 m
Shape Trapezoid+2 pan
Manufacturer ONEWUS
Bus Type ARROW
Phase Status In Orbit
Owner/State ONEWEBN/UK

Large Constellations

Loading constellations...